Orbital Elements at Epoch 2459200.5 (2020-Dec-17.0) TDB
Reference: JPL 32 (heliocentric ecliptic J2000)
Element | Value | Uncertainty (1-sigma) | Units |
e | .1530879348499243 | 3.431e-08 | |
a | 2.786353217480553 | 1.2746e-08 | au |
q | 2.359796157654013 | 9.7765e-08 | au |
i | 8.137021829499821 | 3.8567e-06 | deg |
node | 186.1082572341012 | 2.1707e-05 | deg |
peri | 359.234504888158 | 2.3895e-05 | deg |
M | 193.1853343004888 | 1.1413e-05 | deg |
tp | 2459987.698776121337 (2023-Feb-12.19877612) | 5.6511e-05 | TDB |
period | 1698.840795653805 4.65 | 1.1657e-05 3.192e-08 | d yr |
n | .2119092035704574 | 1.4541e-09 | deg/d |
Q | 3.212910277307093 | 1.4698e-08 | au |
|
| | Orbit Determination Parameters
Additional Information
|